Notices

What's New in latest Release from April 7th, 2021:

- Updated Glossary, including Speed of Maximum Gust, and Total Hourly Precipitation

- Updated national and regional climate services offices contacts and prices information

- Addition of station inventory lists for 1981-2010, 1971-2000, and 1961-1990 Normals.

If you haven't already, please take our survey and provide feedback about our website: https://eccc.sondage-survey.ca/f/LanguageSelection.aspx?s=442ca660-fcf1-47c0-95a9-59707d6fd709

Hourly Data Report for November 04, 2016

CHURCHILL A
MANITOBA

58°44'21.000" N
94°03'59.000" W
29.30 m
5060605
71618
YYQ

Download Data

Hourly Data (November 2016)
Hourly Data Report for November 4, 2016
TIME
LST
Temp Definition
°C
Dew Point Definition
°C
Rel Hum Definition
%
Precip. Amount Definition
mm

Wind Dir Definition
10's deg

Wind Spd Definition
km/h
Visibility Definition
km
Stn Press Definition
kPa
Hmdx Definition


Wind Chill Definition


Weather Definition


00:00 -0.9 -1.3 97   19 8 4.8 100.27   -4 Snow
01:00 -0.3 -0.3 100   19 11 3.2 100.20   -4 Snow
02:00 0.1 0.1 100   22 14 4.8 100.16     Snow
03:00 0.2 0.2 100   21 13 16.1 100.09     Cloudy
04:00 0.5 0.5 100   22 13 24.1 100.07     LegendNANA
05:00 0.8 0.8 100   23 14 16.1 100.04     Rain
06:00 1.4 1.4 100   26 14 24.1 100.02     Cloudy
07:00 1.9 1.5 97   26 23 24.1 100.06     LegendNANA
08:00 2.0 1.4 96   26 19 24.1 100.09     LegendNANA
09:00 2.2 1.3 94   27 20 24.1 100.15     Cloudy
10:00 2.5 1.5 93   27 21 24.1 100.21     LegendNANA
11:00 2.5 1.3 92   28 21 24.1 100.26     LegendNANA
12:00 2.8 0.9 87   29 23 24.1 100.35     Cloudy
13:00 2.6 0.8 88   28 21 24.1 100.45     LegendNANA
14:00 2.8 0.4 84   30 26 24.1 100.53     LegendNANA
15:00 2.8 0.2 83   30 25 24.1 100.63     Mostly Cloudy
16:00 2.4 0.3 86   29 23 24.1 100.73     LegendNANA
17:00 2.2 0.3 87   30 22 24.1 100.81     LegendNANA
18:00 1.2 0.1 92   30 17 24.1 100.91     Mainly Clear
19:00 1.4 -0.4 88   31 23 24.1 100.95     LegendNANA
20:00 0.2 -1.6 88   33 20 24.1 101.00     LegendNANA
21:00 -0.5 -2.9 84   33 17 24.1 101.01   -5 Mostly Cloudy
22:00 -1.4 -3.1 88   31 14 24.1 101.08   -6 LegendNANA
23:00 -2.0 -3.7 88   33 13 24.1 101.11   -6 LegendNANA

Notes on Data Quality.

Legend

  • E = Estimated
  • M = Missing
  • NA = Not Available*
  • [empty] = Indicates an unobserved value
Date modified: